Lapse_Rate
4.0 2.7 2.4 1.9 1.8 1.6 1.3 1.3 0.9 0.8 0.8 0.8 0.8 0.5 0.2 0.1 -0.1 -0.2 -0.3 -0.2 0.0 0.2 0.2 0.1 0.3 0.8 2.0 4.4 3.9 3.9 4.6 4.4 4.5 4.6 3.8 4.1 4.2 5.3 6.5 6.3 6.0 6.5 6.5 5.9 5.0 4.4 4.6
4.0 2.3 2.2 1.9 1.7 1.7 1.3 0.9 0.7 0.5 0.4 0.5 0.4 0.0 -0.3 -0.4 -0.5 -0.5 -0.5 -0.5 -0.3 -0.3 -0.2 0.0 0.5 1.0 3.3 6.1 4.1 4.1 4.4 4.7 4.5 4.5 4.2 4.3 4.8 5.1 5.6 6.2 6.5 6.1 5.9 5.4 4.3 5.2 5.3
2.8 2.2 2.2 1.6 1.6 1.4 1.0 0.6 0.4 0.3 0.2 0.1 -0.0 -0.3 -0.6 -0.7 -0.7 -0.7 -0.7 -0.7 -0.7 -0.7 -0.4 -0.1 0.4 1.6 3.9 4.4 4.0 4.2 4.9 4.9 4.9 4.9 4.8 4.7 5.0 5.7 5.4 6.5 5.8 6.2 6.5 6.5 6.1 6.0 6.4
2.7 2.2 1.7 1.7 1.4 1.1 0.9 0.6 0.3 0.1 0.0 -0.0 -0.3 -0.6 -0.9 -1.1 -1.0 -1.0 -1.0 -1.0 -0.7 -0.7 -0.1 0.1 1.4 2.5 3.3 4.5 3.9 4.8 5.1 5.4 5.6 5.6 5.3 5.5 5.5 5.3 5.6 5.8 6.2 6.5 6.5 6.5 6.5 6.4 6.3
2.2 2.1 1.7 1.4 1.1 0.9 0.6 0.3 0.1 -0.1 -0.2 -0.3 -0.6 -0.9 -1.2 -1.2 -1.1 -1.1 -0.9 -0.8 -0.1 0.1 0.7 1.5 2.7 3.5 4.6 4.9 4.7 5.0 5.4 5.9 5.9 5.9 5.7 6.4 5.8 5.6 6.2 6.5 6.5 6.5 6.5 6.5 6.5 6.2 6.5
2.3 1.9 1.7 1.4 1.2 0.9 0.6 0.3 0.0 -0.1 -0.2 -0.5 -0.8 -1.0 -1.2 -1.3 -1.2 -1.1 -0.8 -0.7 0.6 1.0 1.8 2.7 3.8 4.6 4.2 5.6 5.2 5.1 4.9 6.2 6.4 5.9 5.6 5.8 4.2 6.5 6.5 6.5 6.5 6.5 6.5 6.5 6.5 6.5 6.5
2.4 2.2 1.6 1.3 0.9 0.6 0.3 0.1 -0.2 -0.4 -0.7 -0.9 -1.2 -1.5 -1.6 -1.3 -1.1 -0.9 -1.3 -0.8 1.2 3.4 2.3 4.4 4.1 5.2 6.0 5.4 5.8 5.9 6.1 6.5 6.7 5.6 6.5 6.1 6.5 6.5 6.5 6.5 6.5 6.5 6.5 6.5 6.5 6.5 6.5
2.7 2.1 1.7 1.1 0.8 0.5 0.3 -0.0 -0.4 -0.7 -1.0 -1.1 -1.3 -1.7 -1.6 -1.5 -0.9 -0.4 -0.3 0.8 3.0 3.4 4.3 2.9 3.1 3.6 4.4 6.2 6.3 5.9 6.4 5.9 6.3 6.5 6.5 6.5 6.5 6.5 6.5 6.5 6.5 6.5 6.5 6.5 6.5 6.5 6.5
2.5 2.1 1.8 1.2 0.9 0.6 0.2 -0.3 -0.7 -0.7 -0.7 -1.0 -1.3 -1.5 -1.4 -1.3 -0.5 0.4 0.8 1.6 2.5 3.2 5.2 4.4 5.4 6.1 6.2 6.5 6.2 5.9 5.6 5.5 6.4 6.5 6.5 6.5 6.5 6.5 6.5 6.5 6.5 6.5 6.5 6.5 6.5 6.5 6.5
2.4 2.0 1.8 1.6 1.1 0.6 0.1 -0.3 -0.2 -0.2 -0.5 -0.9 -1.3 -1.2 -1.2 -0.7 1.4 -0.1 1.4 1.4 2.3 3.8 6.5 6.5 6.4 6.5 6.3 5.8 6.3 6.0 5.4 6.3 6.4 6.5 6.5 6.5 6.4 6.5 6.5 6.5 6.5 6.5 6.5 6.5 6.5 6.5 6.5
2.3 2.2 2.0 1.5 1.1 0.6 0.2 0.1 0.0 -0.1 -0.4 -0.9 -1.1 -0.8 -0.7 -1.4 -0.2 1.4 2.3 1.8 2.4 3.5 6.5 6.5 6.4 6.1 5.8 6.1 6.2 6.4 5.8 6.6 6.5 6.5 6.5 6.5 6.5 6.5 6.5 6.5 6.5 6.5 6.5 6.5 6.5 6.5 6.5
2.7 2.7 2.4 1.8 1.4 0.9 0.5 0.3 0.1 -0.1 -0.2 -0.6 -0.7 -0.4 -0.2 -0.3 0.1 2.0 1.5 1.5 2.9 6.5 6.5 6.5 6.3 6.5 6.5 6.2 6.3 6.2 6.2 6.6 6.4 6.5 6.5 6.5 5.6 6.5 6.5 6.5 6.5 6.5 6.5 6.5 6.5 6.5 6.5
3.3 2.9 2.4 2.3 1.4 0.8 0.4 0.3 0.2 -0.2 -0.2 -0.6 -0.2 0.5 0.6 0.8 1.2 1.7 0.8 2.6 6.5 6.5 6.5 6.5 6.5 6.5 6.5 6.5 6.5 6.5 6.5 6.5 6.5 6.5 6.5 6.5 6.5 6.5 6.4 6.5 6.5 6.5 6.5 6.5 6.5 6.5 6.5
3.3 2.9 2.6 1.9 1.2 0.7 0.4 0.3 0.2 -0.1 -0.2 -0.4 -0.1 1.4 1.5 1.6 1.0 0.6 1.2 6.0 6.5 6.5 6.5 6.5 6.5 6.5 6.5 6.5 6.5 6.5 6.5 6.5 6.5 6.5 6.5 6.5 6.5 6.5 6.5 6.5 6.5 6.5 6.5 6.5 6.5 6.5 6.5
3.5 3.3 2.7 2.0 1.1 0.5 0.4 0.2 0.2 0.1 -0.2 -0.2 -0.3 -0.7 0.8 1.4 2.1 0.9 2.4 6.5 6.5 6.5 6.5 6.5 6.5 6.5 6.5 6.5 6.5 6.5 6.5 6.5 6.5 6.5 6.5 6.5 6.5 6.5 6.5 6.5 6.5 6.5 6.5 6.5 6.5 6.5 6.5
4.1 3.5 2.6 1.8 1.1 0.6 0.4 0.4 0.2 0.3 0.0 -0.2 -1.3 0.7 2.3 2.3 2.1 1.4 5.3 6.5 6.5 6.4 6.4 6.5 6.5 6.5 6.5 6.5 6.5 6.5 6.5 6.5 6.5 6.4 6.2 6.5 6.5 6.5 6.5 6.4 6.4 6.5 6.5 6.5 6.5 6.5 6.5
4.1 3.4 2.6 1.8 1.1 0.8 0.7 0.6 0.5 0.2 0.5 -0.3 -0.8 2.5 3.4 1.4 1.3 1.0 6.5 6.5 6.5 6.3 5.6 6.5 6.5 6.5 6.5 6.5 6.5 6.5 6.5 6.5 6.5 6.5 6.1 6.5 6.5 6.5 6.5 6.5 6.5 6.5 6.5 6.5 6.5 6.5 6.5
4.0 3.4 2.6 2.0 1.5 1.4 1.3 0.8 0.7 0.4 0.6 -1.8 -1.2 5.7 2.7 0.8 4.0 4.8 6.5 6.5 6.1 6.3 4.9 6.3 6.4 6.5 6.5 6.5 6.5 6.5 6.5 6.5 6.2 6.1 6.5 6.5 6.5 6.5 6.5 6.5 6.5 6.5 6.5 6.5 6.5 6.5 6.5
4.6 3.7 2.9 2.3 2.7 2.0 1.6 1.1 1.1 1.0 0.7 -2.4 0.6 1.7 2.0 1.6 6.5 6.5 6.2 6.5 6.2 6.4 6.5 6.5 6.5 6.5 6.5 6.5 6.5 6.5 6.5 6.4 6.6 6.5 6.5 6.5 6.5 6.5 6.5 6.5 6.5 6.5 6.5 6.5 6.5 6.5 6.5
4.9 4.1 4.2 4.3 3.7 2.6 2.1 2.1 1.9 1.5 1.2 -1.7 0.9 6.5 1.7 1.5 3.1 6.4 6.5 6.5 6.5 6.0 6.4 6.3 6.5 6.4 6.5 6.5 6.5 6.5 6.5 6.5 6.5 6.6 7.2 6.7 6.5 6.5 6.5 6.5 6.5 6.5 6.5 6.5 6.5 6.5 6.5
5.4 5.2 5.3 5.0 4.9 3.9 3.2 2.8 2.3 1.5 1.0 -1.5 -0.3 5.7 5.9 6.5 6.0 6.1 6.3 6.5 6.5 6.5 6.1 5.8 6.5 6.5 6.5 6.5 6.5 6.5 6.5 6.5 6.5 6.8 6.2 6.5 6.5 6.5 6.5 6.5 6.5 6.5 6.5 6.5 6.5 6.5 6.5
6.0 6.2 6.3 6.2 6.0 5.3 4.9 4.2 3.2 2.2 1.2 -2.6 2.0 4.1 3.4 4.5 5.5 6.4 6.5 6.5 6.5 6.5 6.5 6.5 6.5 6.5 6.5 6.5 6.5 6.5 6.5 6.5 6.5 6.3 6.5 6.5 6.5 6.5 6.5 6.5 6.5 6.5 6.5 6.5 6.5 6.5 6.5
6.6 7.0 6.9 6.6 6.3 5.9 5.8 5.9 5.2 3.8 1.0 0.3 1.8 3.2 3.6 5.9 6.0 6.5 6.5 6.5 6.5 6.5 6.6 6.5 6.5 6.5 6.5 6.5 6.2 5.9 5.7 6.3 6.4 6.5 6.5 6.5 6.5 6.5 6.5 6.5 6.5 6.5 6.5 6.5 6.5 6.5 6.5
7.1 7.4 6.6 6.5 6.4 6.3 6.3 6.5 6.8 6.6 4.5 1.1 1.2 1.8 3.9 6.5 6.4 6.5 6.6 6.6 6.5 6.5 6.5 6.2 5.8 6.5 6.5 5.8 5.0 4.8 4.0 5.5 6.3 6.4 6.6 6.5 6.5 6.5 6.5 6.5 6.5 6.5 6.5 6.5 6.5 6.5 6.5
7.6 6.9 6.6 6.9 7.0 6.5 6.6 7.3 7.5 7.2 6.4 2.5 1.6 2.0 3.5 6.5 6.3 6.5 6.5 6.5 6.0 5.2 6.4 6.5 6.2 6.7 5.8 5.6 6.5 6.5 6.5 6.5 6.5 6.5 6.5 6.5 6.5 6.5 6.5 6.5 6.5 6.5 6.5 6.5 6.5 6.5 6.5
7.0 7.1 7.5 8.1 7.5 7.2 7.5 8.1 8.1 7.8 7.0 4.1 2.7 2.0 2.6 3.5 6.2 6.2 6.0 6.3 6.5 6.5 6.2 6.1 6.0 5.3 6.2 6.5 6.5 6.5 6.5 6.5 6.5 6.5 6.5 6.5 6.5 6.5 6.5 6.5 6.5 6.5 6.5 6.9 6.6 6.5 6.7
7.1 7.4 7.6 7.6 7.7 7.8 8.3 8.1 8.1 8.2 7.5 5.4 3.9 4.1 3.6 2.7 4.4 5.2 5.5 6.1 5.7 6.0 6.5 5.6 5.4 5.6 6.0 6.5 6.5 6.5 6.5 6.5 6.5 6.5 6.5 6.5 6.5 6.5 6.5 6.5 6.5 6.5 6.7 6.4 6.5 6.5 7.0
6.8 7.0 7.2 7.4 7.6 7.9 8.2 8.3 8.2 8.0 8.0 6.5 4.9 5.4 4.3 2.1 4.3 5.5 5.8 5.5 5.6 5.6 6.5 5.2 5.9 5.6 5.6 6.5 6.5 6.5 6.5 6.5 6.5 6.5 6.5 6.5 6.5 6.5 6.5 6.5 6.5 7.1 6.7 6.5 6.7 7.3 7.4
6.9 7.3 7.4 7.5 7.7 7.8 8.0 8.3 8.1 7.9 8.2 7.2 4.7 5.5 5.7 7.1 4.5 5.6 5.5 5.4 6.0 5.7 5.8 5.1 5.1 5.7 4.6 6.5 6.5 6.5 6.5 6.5 6.5 6.5 6.5 6.5 6.5 6.5 6.5 6.5 6.8 7.4 7.1 7.7 7.8 7.4 7.5
Wind_Speed
13 15 14 12 13 13 14 14 16 16 17 18 18 19 19 20 20 20 20 19 18 16 14 10 8 9 3 1 5 3 4 3 3 3 4 3 4 2 2 1 4 2 3 2 5 6 6
15 13 11 12 12 13 14 15 16 17 18 18 19 20 20 20 20 20 20 20 18 16 13 8 5 6 0 1 1 5 3 3 4 4 4 5 2 2 3 3 3 2 4 7 7 3 4
12 11 11 11 12 13 15 16 17 17 18 19 19 20 21 21 22 21 20 20 19 15 9 4 2 1 2 5 3 4 2 1 1 2 3 2 1 1 2 1 2 2 6 8 6 3 5
10 10 10 12 13 14 15 17 18 19 19 20 21 21 22 22 23 23 22 22 18 8 3 1 1 1 4 2 3 2 1 2 3 3 3 2 3 3 1 3 3 3 2 3 1 4 1
9 9 11 12 13 15 16 18 19 20 21 22 22 23 24 24 24 23 21 20 8 1 2 3 2 2 5 3 0 3 2 2 3 2 3 2 3 2 2 3 4 3 3 4 8 6 3
8 10 11 12 14 15 17 18 19 20 21 23 24 25 25 25 25 24 22 8 1 2 2 0 1 2 1 1 1 2 1 2 2 2 3 4 4 2 2 3 5 4 4 4 6 1 2
9 9 11 12 14 16 17 18 19 20 22 24 25 26 25 25 25 23 11 2 5 2 4 2 1 3 0 1 2 2 2 3 2 4 1 2 2 7 8 7 0 2 4 6 5 5 4
9 10 11 13 14 16 17 19 21 22 23 25 26 26 25 23 22 22 2 5 2 2 6 2 3 3 5 2 2 2 2 3 2 2 2 3 7 5 3 4 6 6 4 8 7 4 7
9 10 11 13 15 17 18 20 22 23 24 26 27 25 23 21 19 4 5 3 2 3 0 6 3 0 1 4 3 3 6 2 3 2 5 5 4 3 4 4 5 4 5 6 9 3 4
8 9 11 13 15 18 20 21 22 23 25 27 26 22 20 23 4 3 3 6 7 1 5 3 2 2 2 2 1 1 5 2 2 3 4 6 4 4 4 6 6 7 8 11 4 2 4
8 9 12 14 16 18 20 22 23 24 26 27 25 20 17 14 0 3 5 11 5 2 4 2 1 2 1 1 1 0 1 1 3 2 3 7 2 4 5 8 8 10 4 4 3 3 3
8 9 12 15 16 18 20 23 24 25 26 28 21 17 11 4 2 0 11 6 2 6 4 4 1 2 3 1 1 1 2 2 1 3 3 8 3 4 8 6 8 1 1 3 4 3 1
7 10 12 13 17 19 21 23 25 26 27 28 19 13 5 1 2 12 7 3 5 5 4 7 4 6 5 4 2 3 2 1 3 3 3 4 5 4 3 2 3 3 4 3 3 1 7
8 10 11 15 17 20 22 24 26 26 27 26 17 5 4 1 6 5 2 5 3 3 2 3 5 7 3 7 2 1 0 3 6 3 1 2 11 5 3 6 5 5 7 5 6 3 5
8 9 12 15 18 21 23 24 26 28 28 24 7 3 2 4 9 2 5 4 3 0 3 6 7 3 4 3 5 6 2 4 3 6 5 3 7 3 5 3 5 2 5 4 2 1 2
7 10 13 16 19 21 24 27 28 29 28 17 2 2 3 14 5 4 5 1 1 2 3 3 1 2 2 5 6 6 2 6 8 6 3 4 6 5 3 1 5 5 3 0 1 3 5
9 10 13 15 19 22 25 27 30 29 27 8 3 3 3 18 2 5 3 1 2 2 5 4 2 4 3 4 3 3 5 5 8 9 6 4 5 8 1 7 8 2 4 4 3 4 6
9 11 12 15 19 22 25 27 31 30 24 7 2 2 4 5 4 2 2 2 5 5 8 4 3 3 3 6 4 3 4 4 12 9 6 4 4 5 12 7 4 3 7 7 4 5 3
8 10 13 15 18 21 25 29 31 27 19 2 2 1 3 4 3 2 4 4 5 8 6 6 4 5 6 4 5 4 5 2 15 11 12 8 4 4 9 5 2 1 2 1 4 2 6
9 11 12 14 17 21 26 28 31 27 17 3 3 2 4 5 2 3 3 3 4 5 3 4 5 5 5 4 3 6 8 5 18 12 19 11 5 8 11 11 2 12 10 10 3 5 5
9 10 11 13 17 20 24 28 32 31 16 4 4 1 2 2 4 4 3 3 3 7 5 7 4 7 3 4 7 6 8 14 5 11 5 3 7 11 19 14 13 12 11 10 8 9 9
9 9 10 13 16 20 23 27 33 33 10 4 3 3 3 2 2 3 5 4 3 3 3 2 3 7 4 4 6 13 9 8 9 10 13 3 11 12 17 16 18 20 15 9 10 7 9
8 9 10 13 15 17 20 23 28 32 13 4 2 2 3 4 2 3 0 2 2 3 2 1 3 3 6 4 8 12 12 16 18 14 17 13 13 12 20 10 14 13 4 3 8 10 4
8 8 10 12 14 15 17 20 22 24 16 3 1 3 3 1 2 2 2 1 1 3 3 6 5 2 4 7 7 7 8 14 12 8 3 4 7 9 10 6 7 5 8 12 14 10 7
8 8 9 9 12 13 15 16 17 19 15 4 1 3 3 2 0 2 1 1 3 4 2 3 3 4 5 5 3 5 4 4 2 6 3 5 2 3 3 7 4 5 9 7 5 7 14
7 6 6 7 11 11 12 14 15 15 9 6 2 2 3 4 3 2 1 2 2 3 6 4 5 5 3 1 2 2 2 3 4 6 4 3 4 0 5 4 2 4 12 17 7 3 14
6 5 6 8 8 8 9 10 11 11 9 5 2 3 3 2 3 4 3 3 3 1 2 4 6 6 3 2 2 3 3 2 3 4 5 4 3 2 4 3 4 10 14 9 4 5 16
6 5 5 6 5 6 9 9 9 9 5 3 1 1 3 2 4 3 4 4 1 1 2 3 4 2 2 2 2 2 1 2 3 4 5 2 4 3 3 3 2 19 5 6 6 10 12
5 4 4 4 4 6 6 9 9 9 8 3 1 2 1 1 4 2 6 6 7 9 3 2 2 1 3 0 2 2 3 1 2 3 5 3 3 3 4 2 8 9 11 8 9 11 13
Wind_Direction
67 48 40 31 27 22 16 11 6 1 358 356 353 349 346 341 339 336 335 333 330 328 321 316 315 323 345 11 255 167 128 25 8 26 49 53 63 109 120 320 336 203 291 288 272 281 255
55 48 40 31 21 13 9 6 1 358 356 353 350 347 343 338 335 333 333 331 326 325 321 313 309 320 288 251 51 149 119 42 38 35 25 33 112 163 136 187 171 232 261 266 272 253 235
54 42 28 24 15 9 7 4 0 357 354 350 347 343 339 335 332 332 331 327 322 316 312 301 312 4 64 236 351 137 75 61 48 80 90 23 101 91 143 291 338 328 322 319 223 195 220
44 31 23 17 14 10 7 4 359 355 352 347 344 341 337 334 331 330 331 326 317 295 303 244 71 81 234 345 105 106 92 42 43 56 89 112 57 95 132 307 18 354 46 350 294 144 259
35 26 20 16 12 9 6 3 358 353 350 346 342 339 336 332 330 328 330 326 322 129 96 139 80 94 287 334 195 252 152 117 106 68 36 96 49 78 37 79 3 4 250 222 316 199 131
35 32 23 16 12 9 5 1 356 351 348 345 342 338 335 331 328 328 331 324 41 97 79 231 23 55 321 343 228 124 166 122 88 63 33 48 45 66 48 98 231 232 242 245 244 236 190
45 36 26 16 11 8 4 359 354 351 349 345 341 337 333 330 328 328 340 28 17 344 39 222 225 265 27 346 29 46 139 109 62 60 43 12 48 226 222 210 254 295 219 251 240 222 210
45 32 23 17 11 6 3 358 354 351 348 345 340 336 332 330 329 327 37 60 49 202 314 302 248 268 247 209 334 222 112 128 137 203 134 16 244 230 216 192 224 232 260 264 288 241 180
50 35 24 16 9 4 0 357 353 350 347 344 341 339 335 329 324 25 80 57 330 158 286 308 264 287 45 137 239 264 145 142 184 198 194 185 228 67 155 212 224 207 204 243 234 348 261
48 40 27 14 8 2 358 355 351 349 347 345 344 344 344 334 66 318 63 324 335 136 48 289 355 9 42 92 272 55 191 156 232 235 194 236 274 232 223 246 167 282 218 252 243 114 246
58 34 23 13 7 1 357 355 353 350 349 346 344 346 349 26 183 51 313 322 318 56 19 305 347 298 39 166 305 35 174 47 241 240 122 254 262 239 226 225 163 235 166 188 194 192 7
50 32 21 13 6 2 359 354 352 351 349 347 345 345 352 16 28 356 326 319 48 46 262 352 341 343 351 144 264 53 50 7 292 305 239 246 301 242 222 221 193 59 14 47 51 117 254
39 32 20 13 8 3 359 354 352 352 349 346 342 344 32 37 303 323 337 41 34 120 296 337 334 358 348 266 267 167 157 272 225 339 288 315 229 258 202 266 177 150 82 311 323 337 232
54 31 24 15 8 2 358 355 353 350 347 344 337 355 351 280 323 342 58 52 95 278 1 346 333 316 254 8 345 44 216 274 246 208 307 237 308 193 176 203 194 182 164 173 239 233 263
45 38 23 14 6 2 0 358 355 352 349 343 338 355 19 324 347 50 72 65 204 21 315 341 323 19 320 11 15 3 239 247 279 185 198 198 266 276 218 218 152 195 183 207 229 123 29
57 39 25 14 9 6 4 360 358 353 349 347 59 43 331 334 337 62 69 129 78 47 337 12 279 19 308 333 353 351 301 12 335 33 6 283 291 221 285 128 252 190 192 152 359 231 239
62 40 25 17 14 9 6 1 357 355 350 353 51 60 267 335 68 49 117 203 5 42 28 10 293 308 316 322 298 266 262 64 348 323 335 304 197 277 336 205 208 222 255 226 176 175 246
64 39 31 22 16 11 7 5 2 356 352 38 89 50 313 354 54 44 89 332 344 6 13 353 51 19 338 347 298 278 278 66 2 353 13 317 285 259 257 254 232 208 224 186 199 254 226
61 49 36 27 19 16 11 8 4 360 7 67 68 326 332 53 98 15 335 5 57 11 24 11 4 50 24 336 313 269 346 110 25 12 3 340 299 311 315 332 34 243 336 348 314 8 217
67 53 39 30 24 20 15 9 6 5 11 84 74 34 348 39 31 93 28 11 13 11 70 358 3 70 25 4 358 307 316 331 340 337 330 349 273 250 244 266 347 292 296 299 237 273 291
78 59 43 33 26 24 20 12 9 10 12 85 31 108 189 16 25 58 68 19 17 4 2 21 93 46 339 283 291 255 324 327 311 304 333 341 267 298 293 301 306 285 275 292 267 257 252
85 64 49 36 30 27 24 21 13 11 21 79 91 90 22 43 12 60 13 20 58 346 289 39 19 321 278 245 260 306 308 295 270 285 258 199 277 297 278 292 284 275 278 277 268 306 277
87 63 48 40 36 33 30 28 27 17 37 81 3 51 93 337 39 81 88 337 30 353 320 231 257 287 268 295 303 276 269 273 267 276 288 282 269 270 274 289 279 282 349 271 86 35 335
90 73 56 43 39 38 37 35 36 36 45 100 126 102 81 85 88 114 138 252 283 322 241 281 306 223 261 311 300 280 262 264 275 285 200 252 265 253 254 299 246 90 49 65 69 42 35
96 72 61 54 46 44 40 40 43 44 50 71 79 86 91 105 125 147 233 279 312 293 259 262 270 259 295 291 281 300 303 328 63 192 254 233 258 256 246 207 119 22 2 327 321 60 22
97 83 65 44 49 48 42 45 48 51 61 61 38 97 85 111 248 108 36 15 320 304 335 270 307 309 318 279 296 268 303 310 316 312 275 325 359 247 329 246 270 25 316 313 212 93 11
111 83 57 57 51 49 42 41 41 45 61 89 344 69 88 107 251 144 192 198 173 202 242 297 316 333 9 342 285 335 283 299 302 301 320 315 319 29 306 319 92 346 324 316 23 352 342
110 80 60 53 48 38 33 36 35 29 67 82 277 334 109 143 273 220 202 163 254 173 227 281 353 330 359 344 295 318 274 297 299 278 309 358 323 327 314 308 331 353 8 53 337 315 329
108 93 63 45 48 30 20 19 19 0 348 133 75 341 155 253 241 237 243 221 201 215 166 241 212 245 239 88 274 304 271 280 215 280 349 11 355 298 7 34 28 39 70 32 344 329 330